SL-16 DEB

Satellite information

Favourite Embed

Satellite Type and Status

DEBRISIN ORBIT

Key statistics

Satellite SL-16 DEB at a glance.

Uptime

11986

Days in orbit

Revolutions

≈ 14.1

Per day

Orbit

LEO

Low Earth Orbit

Inclination

71.0

Latest

Satellite identification and parameters

Extended collection of information and parameters for SL-16 DEB.

Object identification

Identified? True

Debris? True

Object name: SL-16 DEB

International designator: 1992-093DH

Object number (NORAD): 22416

Object ID (CCSDS): 22416

Country: COMMONWEALTH OF INDEPENDENT STATES (CIS)

Current information (Y/N): Y

RCS size: SMALL

Orbital parameters

Period: 102.404 minutes

Inclination: 70.9578 deg

SMA: 7250.566 km

Apoapsis: 930.224 km

Periapsis: 814.638 km

RAAN: 284.6682 deg

Eccentricy: 0.00797084

Argument of periapsis: 350.2993 deg

Mean anomaly: 40.8762 deg

Mean motion: 14.06192857 rev/day

Mean motion (dot): 0.00000092 rev/day2

B* drag term: 0.000081918193 1/REarth

Two-line elements (TLE)

Creation date: Oct. 19, 2025, 2:20 a.m.

Reference frame: TEME

Reference center: EARTH

Epoch: Oct. 18, 2025, 11:51 p.m. UTC

TLE line 0: 0 SL-16 DEB

TLE line 1: 1 22416U 92093DH 25291.99422464 .00000092 00000-0 81918-4 0 9999

TLE line 2: 2 22416 70.9578 284.6682 0079708 350.2993 40.8762 14.06192857681725

Live tracking on map

Real-time ground track for satellite SL-16 DEB.

In-orbit conjunctions

A list of the most updated potential collisions computed for object SL-16 DEB.

Target Orbit TCA Probability of collision Miss distance Type
NOAA 9 SSO 2025-03-21 13:10:35 0.0002148072 673.0 (m) PAYLOAD
CZ-6A DEB LEO 2024-12-24 17:28:18 0.003839904 86.0 (m) DEBRIS
FENGYUN 1C DEB SSO 2024-12-20 22:37:52 0.0001326147 304.0 (m) DEBRIS
FENGYUN 1C DEB SSO 2024-11-16 19:10:30 0.0005595289 857.0 (m) DEBRIS
FENGYUN 1C DEB SSO 2024-11-16 05:39:39 0.0001140943 359.0 (m) DEBRIS

Associated space launch

Second generation ELING satellite

SL-16 DEB was lifted into orbit during the mission ‘Zenit-2 | Tselina-2 12’, on board a Zenit-2 space rocket.

The launch took place on Dec. 25, 1992, 5:56 a.m. from 45/1.

For more information about the launch, click the button.

Launch to space Zenit-2 | Tselina-2 12
Zenit-2 | Tselina-2 12

Agency: N/A

Status: Launch Successful

Launch date: Dec. 25, 1992, 5:56 a.m. UTC

Rocket: Zenit-2

Launch pad: 45/1

Location: Baikonur Cosmodrome, Republic of Kazakhstan

...

Latest news about this satellite

There are no fresh news available about this satellite. Check back as we update our databases every day.


Newsletter sign-up

Weekly statistics, charts and insights to help you stay on top of the space industry.